Regional Weather Roundup
Issued by NWS Kansas City/Pleasant Hill, MO

Home | Current Version | Previous Version | Text Only | Print | Product List | Glossary On
Versions: 1 2 3 4 5 6 7 8 9 10 11 12 13 14 15 16 17 18 19 20 21 22 23 24 25 26 27 28
000
ASUS43 KEAX 040710
RWREAX

WEATHER ROUNDUP FOR EASTERN KANSAS AND NORTHWEST MISSOURI
NATIONAL WEATHER SERVICE KANSAS CITY/PLEASANT HILL MO
200 AM CDT WED MAY 04 2016

KSZ040-057-103>105-MOZ028-029-037-043-040800-
...KANSAS CITY METROPOLITAN AREA...

CITY           SKY/WX    TMP DP  RH WIND       PRES   REMARKS
K.C. INTL      CLEAR     54  43  66 SW9       29.87F
K.C. DOWNTOWN  CLEAR     58  45  62 SW9       29.87F
LEES SUMMIT    CLEAR     55  45  68 SW8       29.88F
OLATHE - IXD   PTCLDY    53  46  77 SW8       29.91F
OLATHE - OJC   CLEAR     55  44  66 SW6       29.90F
LAWRENCE       CLEAR     47  45  93 NW5       29.90F

$$

MOZ001>008-011>017-020>025-030>033-038>040-044>046-053-054-040800-
...NORTHERN AND CENTRAL MISSOURI...

CITY           SKY/WX    TMP DP  RH WIND       PRES   REMARKS
ST. JOSEPH     PTCLDY    58  42  55 W10       29.86F
MOSBY          SUNNY     57  43  58 SW3       29.86F
WARRENSBURG    CLEAR     55  45  67 SW12      29.87F
WHITEMAN AFB   CLEAR     56  46  70 SW12      29.86F
CLINTON        CLEAR     55  48  76 SW7       29.90F
SEDALIA        CLEAR     56  46  69 SW13      29.87F
WARSAW         NOT AVBL
CHILLICOTHE      N/A     59  44  57 VRB6      29.82F
KIRKSVILLE     CLOUDY    59  41  51 W10       29.76F

$$

MOZ041-047>049-056>058-063>065-088>090-097-040800-
...EASTERN AND SOUTHERN MISSOURI...

CITY           SKY/WX    TMP DP  RH WIND       PRES   REMARKS
ST. LOUIS INTL PTCLDY    55  42  61 SW13      29.82F
SPIRIT OF STL  CLEAR     54  42  64 SW8       29.82F
COLUMBIA       CLEAR     53  43  68 SW10      29.84F
JEFFERSON CITY CLEAR     55  43  63 W6        29.85F
ROLLA          MOCLDY    48  41  76 SW12      29.86F
OSAGE BEACH    MOCLDY    52  37  58 SW6       29.90F
SPRINGFIELD    PTCLDY    50  41  71 SW8       29.94F
JOPLIN         MOCLDY    57  46  66 SW9       29.97S
WEST PLAINS    CLEAR     47  40  76 W6        29.95F

$$

IAZ060-094-KSZ022-034>040-054-083-096-NEZ052-066-093-040800-
...KANSAS...SOUTHEAST NEBRASKA AND IOWA...

CITY           SKY/WX    TMP DP  RH WIND       PRES   REMARKS
TOPEKA         CLEAR     51  47  86 W3        29.91F
MANHATTAN      CLEAR     52  45  77 SW6       29.94F
EMPORIA        CLEAR     54  45  71 W7        29.96F
CHANUTE        CLEAR     55  46  71 W7        29.96F
WICHITA        CLEAR     54  44  69 NW9       30.01S
OMAHA          CLEAR     57  43  59 N10       29.89R
LINCOLN        CLEAR     59  44  57 NW8       29.93R
FALLS CITY     MOCLDY    58  44  60 W14       29.85F
LAMONI         CLOUDY    54  45  71 NW14      29.80S
DES MOINES     PTCLDY    59  36  42 NW14      29.78R

$$





USA.gov is the U.S. government's official web portal to all federal, state and local government web resources and services.